Helicity
193 161 152 106 78 85 93 100 101 106 82 83 85 60 27 23 18 60 104 76 45 33 27 35 58 31 15 -10 -5 42 65 62 57 66 78 72 90 83 84 85 92 92 84
198 119 140 165 105 89 95 124 111 118 112 105 94 51 67 52 66 76 91 81 76 50 24 40 41 42 12 -12 -0 28 60 61 54 64 77 72 74 83 82 79 92 81 87
250 202 162 141 171 137 262 140 145 157 121 121 89 90 84 61 67 87 95 67 91 66 47 17 33 30 23 17 5 12 41 46 60 71 72 71 76 79 82 82 83 79 83
196 218 178 196 205 175 205 211 193 175 153 147 128 123 125 100 80 86 113 101 76 105 92 66 15 41 39 39 25 8 17 41 66 73 90 64 67 77 66 70 76 69 78
202 179 193 188 163 98 291 167 169 199 221 196 179 144 151 144 110 115 138 109 109 88 105 100 66 26 51 44 42 31 14 13 52 82 95 79 72 66 72 67 74 67 83
198 167 124 136 146 111 147 374 457 313 188 186 172 180 183 180 142 139 141 137 122 101 95 102 92 80 64 35 44 62 35 27 35 63 63 69 80 64 74 55 68 73 68
149 158 117 138 122 138 245 152 126 320 216 167 369 178 187 158 159 153 145 154 140 131 94 150 155 96 86 55 38 60 88 61 36 27 53 76 71 71 74 64 79 64 69
159 136 133 120 131 131 159 104 306 50 185 147 283 233 158 247 189 167 146 145 149 165 164 154 164 127 110 101 87 71 75 102 54 25 39 65 69 65 54 69 75 57 58
115 132 126 104 119 106 102 146 193 95 210 301 401 361 387 253 207 132 145 153 150 191 182 199 188 157 144 137 113 120 108 135 70 44 24 54 66 57 54 64 63 53 50
-7 42 85 96 88 90 111 83 107 145 98 13 165 302 220 288 231 180 80 142 160 174 195 200 182 176 164 159 97 119 111 100 88 44 31 27 52 44 46 48 56 50 52
-28 -27 -1 42 67 62 97 97 89 96 130 194 128 106 213 170 367 310 161 28 108 151 186 196 200 186 154 168 166 121 144 141 119 75 46 39 31 43 46 45 48 45 42
-45 -17 -0 9 33 45 63 102 105 83 61 82 113 111 201 -38 90 232 302 150 62 127 142 188 188 187 179 166 148 116 147 161 143 104 58 53 42 39 30 35 40 47 46
-42 5 35 32 41 52 74 67 80 97 80 45 73 54 44 129 222 181 304 263 124 110 130 139 180 189 202 190 170 153 137 158 172 125 88 63 57 57 38 30 44 46 38
-37 28 34 59 76 90 75 91 65 62 76 77 65 67 47 86 61 164 216 173 250 180 135 145 168 188 210 206 172 185 180 163 177 155 116 82 95 87 64 53 38 45 38
-17 -0 27 35 58 77 106 102 87 86 80 83 94 69 63 48 58 105 152 155 226 260 195 131 208 153 200 219 209 214 173 144 182 184 163 134 136 116 121 93 77 50 54
10 9 14 22 33 53 68 102 105 117 123 88 79 85 81 73 86 103 166 156 267 234 234 229 149 208 170 217 200 215 198 166 156 185 196 194 119 136 155 131 107 87 72
14 14 12 18 31 39 50 62 93 123 141 135 124 96 89 69 76 90 95 124 215 175 209 163 199 158 153 175 167 173 183 191 177 160 180 199 179 159 144 144 146 120 99
15 16 17 11 20 36 46 57 67 87 126 142 156 160 131 92 89 115 111 84 139 309 207 129 204 217 175 165 170 175 168 190 178 141 156 189 175 172 150 165 200 138 137
22 26 25 22 15 27 44 50 55 65 82 110 139 152 156 150 111 86 110 121 89 189 290 226 221 408 259 218 105 145 148 168 189 165 136 167 208 211 187 177 175 148 168
26 34 38 34 28 21 32 50 54 53 58 78 98 126 142 151 141 122 99 125 165 33 118 300 274 326 191 254 225 210 199 192 201 215 225 193 197 181 178 178 166 174 186
32 34 37 43 43 34 34 37 59 60 49 47 75 88 102 127 151 146 123 101 157 119 28 166 178 247 295 315 215 250 203 241 220 238 246 260 279 259 228 232 187 221 232
25 27 34 40 46 51 21 24 36 51 66 53 37 70 87 120 131 149 154 152 154 142 111 153 213 151 264 356 419 347 306 277 296 277 271 249 274 261 293 301 210 219 239
18 16 21 28 35 39 27 32 37 47 45 55 50 17 46 75 106 94 117 162 146 130 111 102 153 257 168 324 355 412 215 281 286 257 288 315 319 293 288 269 216 217 264
9 -1 4 12 19 34 28 43 51 48 45 34 44 53 17 39 81 80 78 104 132 96 106 92 135 -24 189 250 321 373 326 289 279 324 287 332 332 296 278 253 206 213 221
12 20 16 8 17 31 37 44 47 45 41 46 37 42 55 12 37 91 89 106 96 103 97 191 79 18 49 171 211 293 322 330 324 386 371 337 311 334 307 227 224 174 172
7 31 12 23 -2 -3 9 28 27 40 41 44 42 38 44 59 53 51 86 88 106 70 74 74 174 98 77 98 179 207 345 382 366 309 420 383 384 417 348 328 254 229 193
Wind_Speed
63 63 65 63 53 46 58 51 52 53 53 59 58 61 59 55 53 50 39 34 35 34 31 19 18 18 18 15 12 11 6 5 2 4 7 10 12 15 18 20 22 24 26
66 65 68 69 68 62 49 59 57 55 60 59 61 63 61 62 59 54 45 38 39 37 34 24 21 19 18 16 12 8 9 7 3 1 3 5 8 9 13 15 18 20 23
66 67 69 71 75 81 76 60 60 57 58 61 64 67 62 64 61 59 56 45 44 43 42 34 25 23 20 17 11 9 9 8 6 4 1 1 5 7 9 11 14 16 19
69 69 70 72 76 78 74 71 55 54 61 64 68 67 63 61 66 62 59 54 47 44 45 43 36 28 24 21 18 13 10 10 10 9 5 3 1 2 4 7 10 13 16
73 73 73 73 73 73 76 77 53 51 57 59 66 66 64 63 64 65 60 62 53 49 45 46 46 42 34 28 24 20 15 12 12 12 11 8 6 3 1 3 6 9 12
78 76 73 75 75 73 72 70 74 75 60 59 64 73 68 64 65 65 66 64 60 57 53 43 43 47 43 35 32 27 21 18 16 16 15 12 9 7 4 1 2 5 8
81 81 79 78 76 77 80 73 73 77 70 55 60 69 76 69 66 68 67 65 65 59 58 59 47 43 46 44 39 35 30 23 20 19 17 17 14 11 8 5 2 1 4
85 84 84 85 83 83 82 78 77 79 75 69 67 65 70 79 80 70 69 69 68 67 64 59 57 54 50 47 48 41 38 29 25 22 22 20 17 14 12 9 5 4 0
89 88 87 87 86 84 84 83 79 77 82 87 77 69 77 77 68 76 79 72 71 68 69 67 63 60 54 52 47 44 43 36 29 25 26 24 21 18 15 12 10 7 4
92 91 92 90 90 88 88 85 82 83 82 84 83 73 80 68 66 72 78 77 73 74 69 69 68 64 61 54 50 46 44 42 35 30 30 27 24 21 19 16 13 10 8
95 96 94 94 95 92 91 91 90 87 86 89 86 78 76 85 72 74 68 65 74 73 75 70 68 67 64 58 53 50 45 44 41 37 33 29 25 24 21 20 17 14 11
101 98 98 98 98 98 96 95 95 95 93 93 93 94 97 80 69 71 79 62 73 74 71 76 72 69 66 62 56 52 48 47 45 43 38 33 28 26 24 22 20 17 14
105 104 103 103 103 103 103 102 101 100 98 98 97 98 95 92 89 86 80 77 79 76 74 73 75 72 67 65 62 54 51 50 49 46 42 36 33 28 26 25 23 20 19
108 106 106 106 107 107 107 106 105 104 103 102 101 101 101 99 95 92 87 81 89 82 81 77 70 67 67 66 64 56 57 56 53 51 47 43 38 33 30 28 26 24 23
105 107 106 109 109 109 109 110 110 111 108 107 107 105 105 102 99 99 98 91 89 88 88 74 70 68 68 67 69 61 60 61 58 56 53 50 46 40 36 32 31 29 27
101 104 107 109 110 110 110 111 113 112 113 111 108 109 107 105 103 101 100 101 88 91 90 77 73 68 65 66 68 69 68 63 63 61 57 54 50 47 43 39 36 34 32
100 102 104 106 108 111 111 113 114 115 117 117 115 114 114 108 111 108 104 103 108 95 98 96 78 69 67 70 69 69 71 72 69 65 62 58 55 53 49 45 42 40 38
98 100 102 105 106 107 109 113 116 116 120 121 119 118 118 110 113 110 108 108 98 96 99 101 85 78 78 73 71 69 71 73 73 68 65 62 59 57 55 53 49 45 44
97 98 100 103 105 105 107 109 113 116 119 121 118 120 121 116 117 113 112 113 109 103 104 100 97 77 79 77 77 70 73 75 72 73 66 65 65 65 62 59 55 51 47
97 97 97 100 102 104 104 107 109 114 118 119 120 119 120 121 121 117 115 115 110 107 106 108 97 87 75 69 77 76 73 72 75 72 70 71 71 69 65 63 60 57 53
94 96 97 97 98 100 100 101 104 108 113 118 120 122 121 124 126 124 120 118 112 113 110 112 109 98 81 83 76 70 77 77 76 73 74 73 71 73 75 73 69 62 61
94 94 95 97 99 96 100 104 106 107 111 116 122 123 123 126 129 130 132 131 125 123 122 114 113 100 98 89 84 80 75 73 86 78 73 74 67 72 74 72 70 69 66
95 96 96 97 98 97 100 102 104 104 108 112 119 122 125 125 127 127 128 131 131 131 136 133 129 126 116 99 85 85 85 80 85 72 66 79 71 75 72 71 70 69 69
96 97 98 96 98 96 99 100 101 102 106 111 116 121 126 129 128 130 129 130 131 128 130 131 135 134 120 99 89 84 83 90 85 73 69 82 71 77 71 66 66 67 67
95 96 94 96 96 96 98 100 100 98 102 109 110 117 122 128 131 133 135 139 139 140 128 133 135 138 138 132 110 88 89 93 94 86 71 73 73 72 71 60 59 58 57
95 94 95 92 94 96 95 97 96 94 102 104 110 115 120 127 133 134 135 138 144 149 132 129 139 135 138 136 130 107 95 96 83 80 70 73 69 59 64 65 62 61 58
Wind_Direction
304 301 298 299 299 286 278 279 277 277 276 274 273 272 272 273 273 275 279 270 269 272 273 261 264 271 279 287 287 278 264 296 3 80 67 56 53 58 66 63 62 56 59
305 299 297 294 297 294 282 275 274 275 274 272 272 272 273 272 273 272 276 272 264 268 269 261 263 266 269 275 275 252 259 263 244 165 19 72 64 51 65 63 59 61 54
309 304 299 295 294 289 291 275 274 273 275 272 271 270 273 272 272 271 269 272 265 263 264 265 260 262 262 258 254 254 250 243 226 230 287 48 72 67 54 57 62 56 56
310 306 303 299 297 291 292 279 269 272 271 270 269 268 272 273 271 270 268 267 268 263 259 262 262 260 257 250 251 252 249 240 228 232 246 251 228 55 58 70 62 60 57
308 306 302 302 302 295 289 286 278 275 274 268 267 268 270 271 272 269 268 263 263 262 263 260 262 263 259 251 247 248 247 236 232 240 248 247 233 215 359 49 41 62 56
305 304 302 300 299 297 298 292 288 288 280 268 267 265 269 270 271 269 266 265 261 261 260 261 262 261 261 254 248 244 242 234 238 250 252 233 244 236 240 243 55 61 54
304 301 300 299 298 294 289 294 293 285 284 284 274 271 270 269 269 269 266 264 261 258 259 260 262 265 262 257 251 247 243 237 243 247 240 245 240 241 263 226 212 125 70
302 300 298 295 295 292 291 291 288 284 285 279 270 277 275 272 263 266 266 263 261 259 257 257 260 262 265 262 255 247 248 242 243 244 246 245 243 240 236 221 231 201 256
299 298 296 294 292 291 289 287 287 284 282 279 281 274 271 268 271 264 262 262 260 258 257 256 257 260 261 263 258 245 245 240 242 243 249 249 241 241 236 239 227 222 225
296 295 294 292 291 289 287 286 285 283 281 280 281 277 274 273 270 277 261 260 259 257 255 255 256 257 258 259 255 247 237 237 241 243 249 249 243 237 236 237 228 225 218
294 293 291 290 288 287 285 284 282 281 278 276 276 279 280 276 264 270 275 259 259 258 257 255 255 255 255 256 254 250 235 231 237 242 243 246 244 235 233 232 228 226 219
292 291 290 288 286 285 283 282 281 279 277 275 274 273 270 275 277 271 264 270 259 260 259 255 254 254 254 253 252 247 236 232 235 238 243 244 240 234 231 231 230 222 224
291 290 289 287 285 283 281 280 278 276 276 274 272 271 270 269 272 275 269 264 267 260 260 257 254 253 252 251 251 245 237 232 232 234 238 241 241 236 233 232 229 221 218
289 291 288 287 284 282 280 278 276 274 273 272 271 269 269 270 269 270 269 268 264 263 258 256 254 252 251 252 252 244 244 235 233 233 234 239 241 236 234 236 234 226 224
292 290 290 287 284 282 279 277 275 273 272 271 270 269 268 268 268 268 268 269 264 259 256 254 256 252 253 252 252 249 246 242 236 235 237 238 245 240 235 234 229 230 231
296 293 290 287 284 282 279 277 274 273 271 269 269 268 267 267 267 266 265 264 266 257 263 255 255 255 254 254 252 249 249 248 239 237 236 235 234 241 240 233 235 236 236
299 295 292 289 286 282 279 276 274 272 270 268 267 266 266 266 264 264 264 264 262 263 258 261 261 254 255 253 254 252 251 249 248 239 236 235 235 236 240 239 239 242 238
301 297 294 290 287 284 281 276 273 271 268 267 266 265 264 265 263 263 262 261 264 264 258 262 260 258 252 251 253 254 252 251 250 248 240 236 234 233 235 243 244 241 240
303 300 296 292 288 285 282 278 274 271 269 267 267 265 263 263 262 262 261 260 261 263 265 260 261 258 253 251 252 253 252 251 254 252 246 239 239 239 240 242 243 238 240
305 302 299 294 290 286 283 279 276 272 269 267 266 265 263 261 261 261 261 260 260 260 260 261 256 257 255 248 250 251 251 252 253 254 254 253 249 247 245 244 242 244 242
308 304 301 298 293 288 284 280 277 274 271 268 266 264 263 261 260 260 259 259 259 257 257 256 256 253 252 252 248 250 251 253 254 253 254 255 254 253 255 252 252 246 245
309 306 302 299 295 292 286 282 278 276 273 269 266 265 264 262 260 259 258 257 256 255 254 253 253 253 250 252 250 248 250 253 254 252 254 256 254 256 256 255 254 251 249
310 304 301 299 295 293 288 284 281 278 274 271 268 265 264 262 261 259 258 257 256 254 252 252 252 252 253 250 247 250 246 250 254 256 252 257 257 257 258 260 258 255 250
307 301 297 299 296 294 288 286 284 281 277 273 270 268 264 262 260 259 258 257 255 254 252 250 249 250 251 257 247 248 248 252 255 258 252 259 257 260 261 262 259 257 254
306 304 305 302 298 295 291 286 286 285 280 276 273 271 267 263 261 259 257 255 254 253 253 252 250 250 250 251 254 249 250 252 253 254 251 258 259 261 262 262 262 253 249
304 309 305 308 301 295 294 290 289 288 283 280 278 274 268 266 262 259 256 254 253 250 252 252 250 250 249 249 248 247 246 249 254 254 253 251 255 259 268 268 264 261 256